User: anonymous   Login
Location: Unspecified
(0.0000°N, 0.0000°E)
Time: 17:00:05
(UTC+00:00)
Language:

SAUDISAT 1B - Orbit

View from above orbital plane
View from above orbital plane
View from above satellite
View from above satellite

Ground track
Ground track

The orbit data is extracted from the following two-line orbital elements,

1 26549U 00057E   21269.42851363  .00000153  00000-0  36070-4 0  9999
2 26549  64.5524 324.0559 0013037 164.8661 195.2838 14.83817024135405
Epoch (UTC): 26 September 2021 10:17:03
Eccentricity: 0.0013037
inclination: 64.5524°
perigee height: 608 km
apogee height: 626 km
right ascension of ascending node: 324.0559°
argument of perigee: 164.8661°
revolutions per day: 14.83817024
mean anomaly at epoch: 195.2838°
orbit number at epoch: 13540

The dashed part of the orbit path shows where the satellite is in the earth's shadow,  

DLR